sat.trackr.live / text

‹ back to catalog

STARLINK-6090

NORAD 56095 · 2023-046C

PAYLOAD ACTIVE UNKNOWN

§ Identity

Operator
Country
US
Launch date
2023-03-29
Launch site
AFETR
Launch vehicle
Mass (kg)
RCS (m²)

Purposes: comms

External: N2YO · Heavens-Above · Gunter

§ Orbital elements

Epoch: 2026-05-24T20:33:56.116800Z

Period
94.27 min
Inclination
43.0052°
Eccentricity
0.0001483
Mean motion
15.27579701 rev/d
Perigee alt
482.0 km
Apogee alt
484.1 km
Semi-major
6,861.2 km
B*
2.5788e-5
RAAN
91.1222°
Arg perigee
273.5783°
Mean anomaly
86.4899°
Rev number
17,368

§ Raw data

STARLINK-60901 56095U 23046C   26144.85689950  .00000447  00000+0  25788-4 0  99952 56095  43.0052  91.1222 0001483 273.5783  86.4899 15.27579701173682

JSON: /api/v1/satellites/56095 · /tle

For live sub-satellite position, see the globe view (requires WebGL).

§ Visibility from observer

Set your observer location to see the next 7 days of passes ≥ 10°. The values pass through the URL so the page stays shareable.

No JS? Fill the form by hand. The geolocation button needs JavaScript.